SCP
0 0 0 0 0 0 0 0 0 0 0 0 0 0 0 0 0 0 0 0 0 0 0 0 0 0 1 1 1 0 0 0 0 0 0 0 0 0 0 0 0 0 0 0
0 0 0 0 0 0 0 0 0 0 0 0 0 0 0 0 0 0 0 0 0 0 0 0 0 0 1 1 1 1 1 1 0 0 0 0 0 0 0 0 0 0 0 0
0 0 0 0 0 0 0 0 0 0 0 0 0 0 0 0 0 0 0 0 0 0 0 0 0 0 1 1 1 1 1 1 0 0 0 0 0 0 0 0 0 0 0 0
0 0 0 0 0 0 0 0 0 0 0 0 0 0 0 0 0 0 0 0 0 0 0 0 0 1 1 1 1 1 1 0 0 0 0 0 0 0 0 0 0 0 0 0
0 0 0 0 0 0 0 0 0 0 0 0 0 0 0 0 0 0 0 0 0 0 0 0 1 1 1 1 1 1 1 0 0 0 0 0 0 0 0 0 0 0 0 0
0 0 0 0 0 0 0 0 0 0 0 0 0 0 0 0 0 0 0 0 0 0 0 0 1 1 0 1 1 1 1 0 0 0 0 0 0 0 0 0 0 0 0 0
0 0 0 0 0 0 0 0 0 0 0 0 0 0 0 0 0 0 0 1 1 0 0 1 1 1 1 0 1 1 1 1 0 0 0 0 0 0 0 0 0 0 0 0
0 0 0 0 0 0 0 0 0 0 0 0 0 0 0 0 0 0 0 0 0 0 0 1 1 1 1 0 0 1 1 1 1 0 0 0 0 0 0 0 0 0 0 0
0 0 0 0 0 0 0 0 0 0 0 0 0 0 0 0 0 0 0 0 0 0 0 0 1 1 0 0 0 1 1 1 1 1 0 0 0 0 0 0 0 0 0 0
0 0 0 0 0 0 0 0 0 0 0 0 0 0 0 0 0 0 0 0 0 0 0 0 1 1 0 0 0 0 1 1 1 1 1 0 0 0 0 0 0 0 0 1
0 0 0 0 0 0 0 0 0 0 0 0 0 0 0 0 0 0 0 0 0 0 0 0 1 1 1 0 0 0 1 1 1 1 1 1 1 1 0 0 0 0 0 0
0 0 0 0 0 0 0 0 0 0 0 0 0 0 0 0 0 0 0 0 0 0 0 0 0 1 1 0 0 1 1 1 1 1 1 1 1 1 1 0 0 0 0 0
0 0 0 0 0 0 0 0 0 0 0 0 0 0 0 0 0 0 0 0 0 0 0 0 0 0 0 0 0 0 1 1 1 1 1 1 1 1 1 1 0 0 0 0
0 0 0 0 0 0 0 0 0 0 0 0 0 0 0 0 0 0 0 0 0 0 0 0 0 0 0 0 0 0 0 0 1 1 1 1 1 1 1 1 0 0 0 0
0 0 0 0 0 0 0 0 0 0 0 0 0 0 0 0 0 0 0 0 0 0 0 0 0 0 0 0 0 0 0 0 0 0 0 0 0 0 0 0 0 0 0 0
0 0 0 0 0 0 0 0 0 0 0 0 0 0 0 0 0 0 0 0 0 0 0 0 0 0 0 0 0 0 0 0 0 0 0 0 0 0 0 0 0 0 0 0
0 0 0 0 0 0 0 0 0 0 0 0 0 0 0 0 0 0 0 0 0 0 0 0 0 0 0 0 0 0 0 0 0 0 0 0 0 0 0 0 0 0 0 0
0 0 0 0 0 0 0 0 0 0 0 0 0 0 0 0 0 0 0 0 0 0 0 0 0 0 0 0 0 0 0 0 0 0 0 0 0 0 0 0 0 0 0 0
0 0 0 0 0 0 0 0 0 0 0 0 0 0 0 0 0 0 0 0 0 0 0 0 0 0 0 0 0 0 0 0 0 0 0 0 0 0 0 0 0 0 0 0
0 0 0 0 0 0 0 0 0 0 0 0 0 0 0 0 0 0 0 0 0 0 0 0 0 0 0 0 0 0 0 0 0 0 0 0 0 0 0 0 0 0 0 0
0 0 0 0 0 0 0 0 0 0 0 0 0 0 0 0 0 0 0 0 0 0 0 0 0 0 0 0 0 0 0 0 0 0 0 0 0 0 0 0 0 0 0 0
0 0 0 0 0 0 0 0 0 0 0 0 0 0 0 0 0 0 0 0 0 0 0 0 0 0 0 0 0 0 0 0 0 0 0 0 0 0 0 0 0 0 0 0
0 0 0 0 0 0 0 0 0 0 0 0 0 0 0 0 0 0 0 0 0 0 0 0 0 0 0 0 0 0 0 0 0 0 0 0 0 0 0 0 0 0 0 0
0 0 0 0 0 0 0 0 0 0 0 0 0 0 0 0 0 0 0 0 0 0 0 0 0 0 0 0 0 0 0 0 0 0 0 0 0 0 0 0 0 0 0 0
0 0 0 0 0 0 0 0 0 0 0 0 0 0 0 0 0 0 0 0 0 0 0 0 0 0 0 0 0 0 0 0 0 0 0 0 0 0 0 0 0 0 0 0
0 0 0 0 0 0 0 0 0 0 0 0 0 0 0 0 0 0 0 0 0 0 0 0 0 0 0 0 0 0 0 0 0 0 0 0 0 0 0 0 0 0 0 0
0 0 0 0 0 0 0 0 0 0 0 0 0 0 0 0 0 0 0 0 0 0 0 0 0 0 0 0 0 0 0 0 0 0 0 0 0 0 0 0 0 0 0 0
Wind_Speed
3 1 3 5 7 9 10 8 7 5 7 7 5 4 3 3 4 4 6 8 10 10 10 11 12 12 12 11 11 11 11 10 10 9 8 7 7 7 6 5 5 5 4 4
5 5 5 7 7 9 10 9 10 10 9 6 4 3 3 3 5 5 6 8 9 10 11 12 12 12 12 11 11 11 11 10 9 8 8 8 8 7 7 6 5 5 4 4
4 4 5 7 8 10 9 9 9 10 7 3 3 2 3 3 4 5 5 6 8 9 10 11 11 12 12 11 11 11 11 10 10 9 9 9 8 8 7 7 6 6 5 4
4 5 6 0 1 5 8 9 10 10 7 5 3 2 2 3 4 4 4 6 7 7 8 9 10 10 10 10 11 11 11 10 10 10 10 9 8 8 8 7 7 6 6 6
5 5 5 3 3 5 6 6 6 8 7 4 3 3 2 2 3 3 4 4 5 5 6 7 8 9 10 11 10 11 11 11 11 11 10 9 9 9 8 7 7 7 6 6
6 6 5 2 3 2 5 5 2 4 4 4 6 5 2 2 2 2 2 3 4 4 5 6 7 9 10 10 10 10 10 10 10 10 10 10 10 9 8 7 7 6 6 6
8 7 4 0 3 5 6 1 1 2 3 4 3 1 3 3 3 3 3 3 4 4 4 5 6 8 9 9 9 8 8 8 9 10 10 10 9 8 7 7 7 7 7 6
8 8 5 4 5 6 1 1 0 1 2 3 2 2 3 3 3 4 4 3 3 4 4 4 5 7 8 7 6 6 7 8 8 9 8 8 8 7 7 7 7 7 7 6
6 4 0 4 4 3 2 2 1 1 2 3 3 3 3 3 3 3 4 4 4 4 4 4 5 5 6 6 6 6 7 7 7 8 7 8 8 8 7 7 6 6 6 6
6 5 4 3 3 3 3 2 1 1 2 3 3 3 4 3 3 3 3 4 4 4 4 4 4 4 4 4 6 7 7 7 7 7 7 7 6 7 7 7 7 6 6 6
7 5 3 3 4 3 2 2 2 2 2 3 4 4 4 4 4 4 4 4 4 4 4 4 4 4 3 4 5 6 6 6 6 6 6 6 6 5 6 6 6 6 6 6
6 5 4 4 3 3 4 4 3 3 3 3 3 4 4 4 4 4 4 4 4 4 4 4 4 4 3 3 4 5 5 5 4 4 4 4 5 4 2 3 3 4 4 4
3 2 2 3 3 4 4 4 3 4 4 3 3 4 4 4 4 4 4 4 4 4 4 4 4 3 3 2 3 4 4 4 3 4 4 4 4 4 4 4 4 6 6 7
4 4 4 4 3 3 4 4 4 4 4 4 4 4 4 5 5 4 4 4 4 4 4 4 4 3 2 2 3 3 3 3 3 3 3 3 3 3 3 3 3 3 6 8
5 4 4 4 4 4 4 5 5 5 5 4 4 4 4 5 5 4 4 4 5 5 5 4 4 3 2 2 2 3 2 2 2 2 2 2 2 2 3 3 3 3 2 4
5 5 5 5 5 5 5 5 5 5 4 4 4 4 4 5 5 5 5 4 5 5 5 4 4 3 3 2 3 2 2 3 1 1 2 2 2 2 2 2 2 2 3 2
7 7 7 7 6 6 5 5 5 4 4 4 4 5 5 6 6 6 5 5 5 5 5 5 4 3 3 3 2 2 2 3 2 1 1 1 1 1 2 2 2 2 2 2
8 8 8 8 7 6 6 5 4 4 4 4 5 5 5 5 6 5 5 5 6 6 6 5 4 3 3 3 2 1 1 1 1 0 0 0 1 1 2 2 3 3 3 2
6 6 6 6 6 6 5 5 5 4 4 5 6 6 5 5 5 5 5 5 5 5 5 5 4 3 4 4 3 1 1 1 1 0 0 0 1 2 2 2 3 3 4 3
5 5 5 5 5 5 5 5 5 5 5 6 6 7 6 6 5 5 5 5 4 3 3 3 3 4 4 4 3 1 1 1 0 0 1 1 1 2 2 3 3 4 4 4
5 6 6 6 6 5 5 6 6 6 6 6 7 7 7 6 5 5 5 4 4 4 4 3 2 3 3 3 2 2 1 1 1 1 1 2 2 2 3 3 3 4 4 5
5 5 6 6 6 6 6 6 7 7 7 7 7 7 7 6 5 5 4 3 3 3 2 2 3 4 4 3 2 2 2 1 1 1 2 2 2 3 3 4 4 4 5 5
4 5 6 6 6 6 6 6 7 7 7 7 7 7 6 5 4 3 3 3 2 3 2 3 4 4 3 2 2 2 2 2 2 2 2 3 3 3 4 4 4 5 5 5
4 5 5 6 6 7 7 7 6 6 7 6 6 6 5 4 3 3 3 3 3 2 2 3 3 3 3 2 2 2 2 2 2 2 3 3 3 4 4 4 5 5 5 7
5 5 6 6 6 5 6 7 7 7 6 5 5 5 3 3 3 3 3 3 3 2 2 2 2 2 2 2 2 2 2 2 3 3 3 3 4 4 4 5 5 6 6 6
4 4 4 4 4 5 5 5 5 5 5 5 4 4 3 3 4 3 3 3 3 2 1 1 1 1 1 2 2 2 2 2 2 3 3 4 4 4 4 5 7 6 6 6
5 4 4 4 4 4 5 5 5 5 4 4 4 4 3 3 3 3 2 2 1 1 1 1 1 1 2 2 2 2 2 2 3 3 3 4 4 4 5 6 6 6 6 6
Wind_Direction
247 234 215 224 216 213 227 242 256 265 273 282 290 276 254 211 194 191 189 189 189 191 191 188 189 190 188 186 183 182 183 188 190 187 182 180 172 176 175 176 182 178 172 169
222 217 225 237 230 223 228 239 250 263 271 279 286 267 226 206 198 198 193 193 193 195 193 192 191 190 189 188 185 183 187 191 187 185 178 179 178 177 175 177 181 177 181 176
223 193 231 241 224 217 220 224 234 247 258 268 256 236 227 213 207 204 194 193 195 197 196 195 195 192 190 189 185 187 190 190 185 185 181 184 179 176 178 180 179 181 187 185
233 216 241 278 134 220 232 241 243 253 262 258 255 251 244 231 215 206 196 193 195 197 194 194 191 189 187 184 186 189 191 190 188 187 184 180 179 181 187 186 180 188 191 191
232 239 250 235 207 207 226 246 241 243 248 238 215 198 190 189 208 213 204 195 192 193 188 185 183 182 181 183 186 190 192 193 189 189 185 182 184 187 188 187 187 192 194 196
223 236 241 207 125 178 234 236 215 222 216 203 197 207 149 141 172 180 162 168 172 171 174 177 177 176 181 186 189 195 195 195 189 188 188 188 191 191 186 187 192 192 194 204
228 236 242 178 133 176 219 213 96 203 190 185 200 63 82 117 131 129 125 136 151 153 158 167 171 172 182 188 194 195 191 191 188 188 190 190 189 187 185 186 188 195 197 204
218 227 222 138 167 206 261 8 226 185 175 169 143 92 105 119 124 121 119 128 146 147 143 149 162 173 183 191 192 185 180 183 186 186 186 184 183 185 189 188 191 196 203 205
225 236 36 165 204 245 285 249 218 180 169 162 146 131 128 128 125 121 123 131 142 145 140 142 158 175 183 183 180 177 175 180 183 182 183 183 183 183 186 191 199 203 205 211
219 224 217 211 226 230 233 231 188 163 162 161 145 131 128 121 115 116 123 128 136 140 141 141 151 165 176 168 173 176 177 180 182 182 182 183 187 190 192 194 201 208 211 215
222 214 196 200 202 197 169 158 151 136 137 149 138 124 122 121 117 115 113 117 130 142 140 137 141 149 161 166 174 179 178 176 180 182 183 187 188 199 207 206 208 210 214 215
216 202 206 188 175 176 167 155 153 140 121 122 132 125 116 109 108 114 118 121 123 124 127 128 128 130 137 163 182 183 177 175 176 177 180 186 190 190 198 234 209 219 237 242
238 201 186 156 147 157 157 142 134 135 133 126 121 118 114 109 105 106 112 115 114 113 116 115 112 109 117 147 176 184 180 174 173 178 180 187 194 201 201 198 209 223 226 231
185 159 163 164 152 149 141 135 128 125 123 121 117 114 112 108 104 101 96 96 102 107 106 106 102 92 92 127 154 169 168 157 169 177 189 193 199 209 216 221 220 223 213 215
196 199 181 156 149 146 143 138 133 128 122 119 118 119 117 115 109 101 94 95 100 99 97 98 93 82 78 109 131 138 137 139 151 163 180 191 200 211 221 229 239 245 242 197
177 170 165 166 168 159 154 151 147 140 132 127 122 120 117 113 107 100 95 98 101 95 88 86 81 75 82 102 112 117 115 96 114 156 167 178 192 208 223 235 243 248 251 257
180 183 181 180 181 177 174 173 165 154 144 133 127 124 122 118 111 102 96 94 91 86 81 79 74 70 83 97 106 109 110 116 132 155 158 188 214 232 240 248 256 261 264 260
208 204 198 192 187 181 176 170 162 154 143 130 128 131 129 126 118 109 104 103 98 87 72 65 63 69 80 81 84 88 105 112 125 136 167 241 264 254 258 267 269 273 277 253
201 196 194 189 186 182 173 163 156 147 139 137 137 132 125 117 112 111 111 107 99 88 68 58 49 65 68 61 48 82 83 84 85 70 20 346 273 287 288 283 281 280 279 277
184 179 176 171 168 167 161 152 146 139 137 139 134 126 120 115 114 113 107 94 77 70 69 59 62 62 62 58 26 43 68 67 32 348 297 283 285 293 293 288 286 285 284 281
173 166 161 157 150 148 147 146 141 137 135 138 137 130 123 117 116 114 108 96 78 68 68 57 53 51 46 37 13 30 33 21 344 315 303 298 297 297 296 295 292 291 292 292
163 161 159 153 147 143 140 138 135 133 131 130 127 124 121 118 112 102 89 87 88 74 67 61 53 46 30 7 14 21 15 3 346 334 323 315 306 303 304 305 302 301 298 296
152 154 153 152 150 142 134 131 132 131 131 131 131 130 125 119 119 118 106 90 93 68 49 53 53 42 6 358 15 11 2 351 343 333 326 317 311 310 310 308 308 306 303 301
139 142 140 139 138 136 133 128 125 123 123 121 120 123 124 119 106 93 96 98 84 71 57 65 58 27 344 354 3 355 353 348 339 331 324 318 315 314 313 312 310 308 306 303
131 130 131 134 135 131 127 124 120 117 117 113 112 112 109 109 115 112 110 110 100 83 78 72 48 2 344 3 354 345 341 344 338 328 320 318 317 314 313 312 310 307 305 303
125 123 123 126 123 124 129 129 128 127 125 119 113 106 101 102 109 111 112 115 104 76 57 48 24 342 354 358 349 339 334 331 321 318 319 317 316 315 312 312 311 309 308 307
121 120 120 119 118 124 128 130 131 130 128 125 117 107 102 103 106 108 109 108 102 83 53 26 3 356 355 349 339 334 332 329 325 324 324 324 321 318 317 315 314 312 311 310